LEMUR-2-ANDIS (42838 NORAD) Tracking and Keplerian Element Data

This shows tracking and keplerian element data for the satellite.

Feedback or suggestion? Click here.




ElementValue
Catalog42838
NameLEMUR-2-ANDIS
Epoch Orbit41250
Epoch Day34.45724548
Epoch Year2025
RAAN219.3087
Inclination97.3579
Eccentricity0.001402
Argument of Perigee326.73
Mean Anonmoly33.3049
Mean Motion15.13679272
Decay Rate0.00022435
L11 42838U 17042P 25034.45724548 .00022435 00000+0 12448-2 0 9998
L22 42838 97.3579 219.3087 0014020 326.7300 33.3049 15.13679272412502



Live tracking and technical data element details for LEMUR-2-ANDIS (NORAD 42838). LEMUR-2-ANDIS can be tracked NOW for your location showing map with azimuth and elevation plus other details from your city location.







IsCatalogInMostPopularTable: catalog: 42838, numindb: 506
Update: records affected: 1



GetName: 42838 LEMUR-2-ANDIS

Hit Count: updated at: Thu, 22 May 2025 03:47:23 GMT